TimeMST,TemperatureF,Dew PointF,Humidity,Sea Level PressureIn,VisibilityMPH,Wind Direction,Wind SpeedMPH,Gust SpeedMPH,PrecipitationIn,Events,Conditions,WindDirDegrees,DateUTC
12:53 AM,21.9,5.0,48,30.30,10.0,WSW,16.1,-,N/A,,Clear,240,2013-01-06 07:53:00
1:53 AM,18.0,3.9,54,30.28,10.0,WSW,21.9,-,N/A,,Clear,240,2013-01-06 08:53:00
2:53 AM,25.0,5.0,43,30.24,10.0,SW,23.0,29.9,N/A,,Clear,220,2013-01-06 09:53:00
3:53 AM,19.0,3.9,52,30.24,10.0,North,-9999.0,-,N/A,,Clear,0,2013-01-06 10:53:00
4:53 AM,25.0,3.9,41,30.21,10.0,North,-9999.0,-,N/A,,Clear,0,2013-01-06 11:53:00
5:53 AM,26.1,5.0,41,30.20,10.0,SW,16.1,23.0,N/A,,Clear,230,2013-01-06 12:53:00
6:53 AM,26.1,5.0,41,30.21,10.0,West,4.6,16.1,N/A,,Clear,280,2013-01-06 13:53:00
7:53 AM,28.9,3.9,35,30.17,10.0,Variable,4.6,-,N/A,,Clear,0,2013-01-06 14:53:00
8:53 AM,28.4,6.8,40,30.06,10.0,West,5.8,-,N/A,,Clear,280,2013-01-06 15:53:00
9:53 AM,36.0,8.1,31,30.11,10.0,SW,38.0,44.9,N/A,,Clear,220,2013-01-06 16:53:00
10:53 AM,37.0,8.1,30,30.09,10.0,SW,28.8,36.8,N/A,,Clear,220,2013-01-06 17:53:00
11:53 AM,36.0,10.0,34,30.08,10.0,SSW,26.5,33.4,N/A,,Clear,210,2013-01-06 18:53:00
12:53 PM,37.9,12.9,36,30.01,10.0,SSW,26.5,36.8,N/A,,Clear,210,2013-01-06 19:53:00
1:53 PM,39.0,10.9,32,29.98,10.0,SW,35.7,48.3,N/A,,Clear,220,2013-01-06 20:53:00
2:53 PM,39.0,10.9,32,29.96,10.0,SSW,32.2,40.3,N/A,,Clear,210,2013-01-06 21:53:00
3:53 PM,37.0,10.9,34,29.98,10.0,SW,29.9,39.1,N/A,,Clear,220,2013-01-06 22:53:00
4:53 PM,33.1,9.0,37,30.00,10.0,WSW,18.4,28.8,N/A,,Clear,240,2013-01-06 23:53:00
5:53 PM,32.0,9.0,38,30.00,10.0,West,15.0,24.2,N/A,,Clear,260,2013-01-07 00:53:00
6:53 PM,30.9,9.0,40,30.00,10.0,WSW,15.0,24.2,N/A,,Clear,240,2013-01-07 01:53:00
7:53 PM,28.9,8.1,41,29.99,10.0,SW,9.2,-,N/A,,Clear,230,2013-01-07 02:53:00
8:53 PM,28.0,8.1,43,30.00,10.0,SW,20.7,-,N/A,,Clear,220,2013-01-07 03:53:00
9:53 PM,27.0,7.0,43,29.98,10.0,SW,17.3,26.5,N/A,,Clear,230,2013-01-07 04:53:00
10:53 PM,27.0,7.0,43,29.98,10.0,SW,17.3,-,N/A,,Clear,220,2013-01-07 05:53:00
11:53 PM,28.0,6.1,39,29.96,10.0,SSW,20.7,27.6,N/A,,Clear,210,2013-01-07 06:53:00